Wahpeton, MN

2:50 PM CST on December 05, 2019 (GMT -0600)
Stern

Weather History for KBWP - October, 2019

Change the Weather History Date:

Saturday, October 5, 2019

  Actual Average (KFFM) Record (KFFM)
Temperature  
Mean Temperature 46 °F -  
Max Temperature 51 °F 61 °F 93 °F (1963)
Min Temperature 42 °F 38 °F 24 °F (1988)
Degree Days  
Heating Degree Days 18    
Moisture  
Dew Point 44 °F    
Average Humidity 89    
Maximum Humidity 94    
Minimum Humidity 76    
Precipitation  
Precipitation 0.00 in - - ()
Sea Level Pressure  
Sea Level Pressure 29.75 in    
Wind  
Wind Speed 14 mph ()    
Max Wind Speed 29 mph    
Max Gust Speed 34 mph    
Visibility 7.7 miles    
Events      
Averages and records for this station are not official NWS values.
T = Trace of Precipitation, MM = Missing Value Source: Averaged Metar Reports

Daily Weather History Graph

Daily Weather History Graph

Search for Another Location

Airport or City:

Astronomy

Oct. 05, 2019 Rise Set
Actual Time 7:29 AM CDT 6:59 PM CDT
Civil Twilight 6:59 AM CDT 7:28 PM CDT
Nautical Twilight 6:25 AM CDT 8:03 PM CDT
Astronomical Twilight 5:49 AM CDT 8:38 PM CDT
Moon 3:15 PM CDT No Moon Set
Length of Visible Light 12h 28m
Length of Day
11h 29m
Waxing Crescent, 50% of the Moon is Illuminated
Oct 5
Waxing Crescent
Oct 13
Full
Oct 21
Last Quarter
Oct 27
New
Nov 4
First Quarter

Hourly Weather History & Observations

Time (CDT) Temp. Windchill Dew Point Humidity Pressure Visibility Wind Dir Wind Speed Gust Speed Precip Events Conditions
12:15 AM 42.8 °F 35.1 °F 41.0 °F 93% 30.01 in 5.0 mi ESE 16.1 mph 20.7 mph N/A   Unknown
12:35 AM 42.8 °F 37.0 °F 41.0 °F 93% 30.00 in 10.0 mi ESE 10.4 mph 18.4 mph N/A   Unknown
12:55 AM 44.6 °F 39.2 °F 41.0 °F 87% 30.01 in 1.8 mi SE 10.4 mph - N/A   Unknown
1:15 AM 44.6 °F 39.2 °F 41.0 °F 87% 29.97 in 5.0 mi ESE 10.4 mph - N/A   Unknown
1:35 AM 44.6 °F 38.8 °F 41.0 °F 87% 29.98 in 10.0 mi ESE 11.5 mph - N/A   Unknown
1:55 AM 44.6 °F 38.1 °F 41.0 °F 87% 29.96 in 3.0 mi ESE 13.8 mph 20.7 mph N/A   Unknown
2:15 AM 44.6 °F 37.8 °F 42.8 °F 93% 29.97 in 4.0 mi SE 15.0 mph 18.4 mph N/A   Unknown
2:35 AM 44.6 °F 38.8 °F 42.8 °F 93% 29.96 in 2.5 mi ESE 11.5 mph 17.3 mph N/A   Unknown
2:55 AM 44.6 °F 38.1 °F 42.8 °F 93% 29.94 in 7.0 mi SE 13.8 mph 18.4 mph N/A   Unknown
3:15 AM 44.6 °F 37.8 °F 42.8 °F 93% 29.92 in 7.0 mi SE 15.0 mph 20.7 mph N/A   Unknown
3:35 AM 44.6 °F 38.1 °F 42.8 °F 93% 29.91 in 7.0 mi SE 13.8 mph 18.4 mph N/A   Unknown
3:55 AM 44.6 °F 37.4 °F 42.8 °F 93% 29.89 in 7.0 mi SE 16.1 mph 19.6 mph N/A   Unknown
4:15 AM 44.6 °F 37.8 °F 42.8 °F 93% 29.84 in 10.0 mi ESE 15.0 mph 20.7 mph N/A   Unknown
4:35 AM 44.6 °F 36.4 °F 42.8 °F 93% 29.75 in 10.0 mi East 20.7 mph 25.3 mph N/A   Unknown
4:55 AM 46.4 °F 39.5 °F 42.8 °F 87% 29.85 in 10.0 mi SSE 17.3 mph 23.0 mph N/A   Unknown
5:15 AM 46.4 °F 39.5 °F 42.8 °F 87% 29.85 in 10.0 mi SE 17.3 mph 21.9 mph N/A   Unknown
5:35 AM 46.4 °F 39.8 °F 42.8 °F 87% 29.84 in 10.0 mi SE 16.1 mph 24.2 mph N/A   Unknown
5:55 AM 46.4 °F 39.5 °F 44.6 °F 93% 29.79 in 4.0 mi SE 17.3 mph 23.0 mph N/A   Unknown
6:15 AM 46.4 °F 39.5 °F 44.6 °F 93% 29.80 in 7.0 mi SSE 17.3 mph 23.0 mph N/A   Unknown
6:35 AM 46.4 °F 40.4 °F 44.6 °F 93% 29.78 in 10.0 mi SSE 13.8 mph 20.7 mph N/A   Unknown
6:55 AM 46.4 °F 40.4 °F 44.6 °F 93% 29.76 in 7.0 mi SE 13.8 mph 17.3 mph N/A   Unknown
7:15 AM 46.4 °F 40.7 °F 44.6 °F 93% 29.75 in 10.0 mi SSE 12.7 mph - N/A   Unknown
7:35 AM 46.4 °F 40.4 °F 44.6 °F 93% 29.74 in 10.0 mi SSE 13.8 mph - N/A   Unknown
7:55 AM 46.4 °F 40.4 °F 44.6 °F 93% 29.73 in 10.0 mi SSE 13.8 mph - N/A   Unknown
8:15 AM 46.4 °F 40.7 °F 44.6 °F 93% 29.72 in 10.0 mi SE 12.7 mph 20.7 mph N/A   Unknown
8:35 AM 46.4 °F 40.4 °F 44.6 °F 93% 29.71 in 10.0 mi SSE 13.8 mph - N/A   Unknown
8:55 AM 48.2 °F - 44.6 °F 87% 29.70 in 10.0 mi SSE 18.4 mph - N/A   Unknown
9:15 AM 48.2 °F - 44.6 °F 87% 29.69 in 10.0 mi SSE 15.0 mph 21.9 mph N/A   Unknown
9:35 AM 48.2 °F - 46.4 °F 93% 29.68 in 7.0 mi SSE 15.0 mph - N/A   Unknown
9:55 AM 48.2 °F - 46.4 °F 93% 29.67 in 10.0 mi SSE 15.0 mph 20.7 mph N/A   Unknown
10:15 AM 50.0 °F - 46.4 °F 87% 29.65 in 3.0 mi SSE 11.5 mph - N/A   Unknown
10:35 AM 50.0 °F - 46.4 °F 87% 29.64 in 5.0 mi SSE 11.5 mph - N/A   Unknown
10:55 AM 50.0 °F - 46.4 °F 87% 29.63 in 7.0 mi SSE 12.7 mph - N/A   Unknown
11:15 AM 50.0 °F - 46.4 °F 87% 29.62 in 2.5 mi SSE 9.2 mph - N/A   Unknown
11:35 AM 50.0 °F - 46.4 °F 87% 29.61 in 3.0 mi SSE 6.9 mph - N/A   Unknown
11:55 AM 50.0 °F - 46.4 °F 87% 29.59 in 1.2 mi SSE 8.1 mph - N/A   Unknown
12:15 PM 50.0 °F - 48.2 °F 94% 29.58 in 10.0 mi SSE 6.9 mph - N/A   Unknown
12:35 PM 51.8 °F - 48.2 °F 88% 29.59 in 5.0 mi South 9.2 mph - N/A   Unknown
12:55 PM 51.8 °F - 50.0 °F 94% 29.58 in 1.8 mi SSW 8.1 mph - N/A   Unknown
1:15 PM 51.8 °F - 50.0 °F 94% 29.57 in 1.8 mi SW 8.1 mph - N/A   Unknown
1:35 PM 51.8 °F - 50.0 °F 94% 29.57 in 5.0 mi West 16.1 mph 21.9 mph N/A   Unknown
1:55 PM 51.8 °F - 50.0 °F 94% 29.57 in 2.5 mi West 21.9 mph - N/A   Unknown
2:15 PM 50.0 °F - 46.4 °F 87% 29.58 in 5.0 mi WNW 21.9 mph 26.5 mph N/A   Unknown
2:35 PM 50.0 °F - 46.4 °F 87% 29.59 in 5.0 mi WNW 20.7 mph 26.5 mph N/A   Unknown
2:55 PM 50.0 °F - 46.4 °F 87% 29.59 in 10.0 mi WNW 28.8 mph 32.2 mph N/A   Unknown
3:15 PM 50.0 °F - 46.4 °F 87% 29.60 in 3.0 mi WNW 21.9 mph 29.9 mph N/A   Unknown
3:35 PM 50.0 °F - 46.4 °F 87% 29.61 in 3.0 mi WNW 23.0 mph 29.9 mph N/A   Unknown
3:55 PM 50.0 °F - 46.4 °F 87% 29.63 in 10.0 mi WNW 24.2 mph 32.2 mph N/A   Unknown
4:15 PM 50.0 °F - 44.6 °F 82% 29.64 in 10.0 mi WNW 28.8 mph 33.4 mph N/A   Unknown
4:35 PM 48.2 °F - 42.8 °F 82% 29.66 in 10.0 mi WNW 25.3 mph 34.5 mph N/A   Unknown
4:55 PM 48.2 °F - 44.6 °F 87% 29.68 in 10.0 mi WNW 27.6 mph 32.2 mph N/A   Unknown
5:15 PM 46.4 °F 38.7 °F 42.8 °F 87% 29.69 in 10.0 mi WNW 20.7 mph 28.8 mph N/A   Unknown
5:35 PM 46.4 °F 39.2 °F 42.8 °F 87% 29.70 in 10.0 mi WNW 18.4 mph 24.2 mph N/A   Unknown
5:55 PM 46.4 °F 39.8 °F 42.8 °F 87% 29.71 in 7.0 mi West 16.1 mph - N/A   Unknown
6:15 PM 46.4 °F 39.5 °F 44.6 °F 93% 29.73 in 10.0 mi West 17.3 mph 21.9 mph N/A   Unknown
6:35 PM 48.2 °F - 44.6 °F 87% 29.73 in 10.0 mi West 17.3 mph 25.3 mph N/A   Unknown
6:55 PM 48.2 °F - 44.6 °F 87% 29.73 in 10.0 mi West 17.3 mph 21.9 mph N/A   Unknown
7:15 PM 48.2 °F - 44.6 °F 87% 29.74 in 10.0 mi West 17.3 mph - N/A   Unknown
7:35 PM 48.2 °F - 42.8 °F 82% 29.75 in 10.0 mi West 12.7 mph - N/A   Unknown
7:55 PM 48.2 °F - 42.8 °F 82% 29.75 in 10.0 mi West 9.2 mph - N/A   Unknown
8:15 PM 46.4 °F 41.9 °F 42.8 °F 87% 29.75 in 10.0 mi West 9.2 mph - N/A   Unknown
8:35 PM 46.4 °F 41.9 °F 44.6 °F 93% 29.76 in 10.0 mi West 9.2 mph - N/A   Unknown
8:55 PM 46.4 °F 41.5 °F 44.6 °F 93% 29.76 in 10.0 mi West 10.4 mph - N/A   Unknown
9:15 PM 46.4 °F 41.1 °F 42.8 °F 87% 29.76 in 10.0 mi West 11.5 mph - N/A   Unknown
9:35 PM 48.2 °F - 44.6 °F 87% 29.77 in 10.0 mi West 11.5 mph - N/A   Unknown
9:55 PM 48.2 °F - 42.8 °F 82% 29.77 in 10.0 mi WSW 11.5 mph - N/A   Unknown
10:15 PM 48.2 °F - 42.8 °F 82% 29.77 in 10.0 mi WSW 13.8 mph - N/A   Unknown
10:35 PM 48.2 °F - 42.8 °F 82% 29.77 in 10.0 mi WSW 15.0 mph - N/A   Unknown
10:55 PM 50.0 °F - 42.8 °F 76% 29.77 in 10.0 mi West 16.1 mph - N/A   Unknown
11:15 PM 48.2 °F - 41.0 °F 76% 29.77 in 10.0 mi West 15.0 mph - N/A   Unknown
11:35 PM 46.4 °F 40.7 °F 41.0 °F 81% 29.77 in 10.0 mi West 12.7 mph - N/A   Unknown
11:55 PM 46.4 °F 40.7 °F 41.0 °F 81% 29.78 in 10.0 mi West 12.7 mph - N/A   Unknown